Location: Oak Glen
(34.0495°N, 116.9470°E)
Time: 15:27:10
(UTC-07:00)

Vanguard 2 Rocket - All Passes

Search period start: 20 June 2018 00:00
Search period end: 30 June 2018 00:00
Orbit: 553 x 3328 km, 32.9° (Epoch: 19 June)

Date Brightness Start Highest point End Pass type
(mag) Time Alt. Az. Time Alt. Az. Time Alt. Az.
20 Jun - 00:49:43 10° W 01:03:23 60° SSW 01:10:57 10° SE daylight
20 Jun - 03:10:14 10° W 03:15:41 17° SW 03:19:46 10° S daylight
20 Jun - 16:54:38 10° SSW 17:11:04 36° SE 17:27:26 10° E daylight
20 Jun - 19:08:20 10° SW 19:28:29 67° SSE 19:44:33 10° E daylight
20 Jun - 21:26:43 10° W 21:46:35 86° S 21:59:08 10° E daylight
20 Jun - 23:46:57 10° W 00:03:10 74° SSW 00:12:11 10° ESE daylight
21 Jun - 02:07:02 10° W 02:16:41 31° SW 02:22:47 10° SSE daylight
21 Jun - 15:56:00 10° S 16:09:47 27° SE 16:24:36 10° E daylight
21 Jun - 18:07:19 10° SW 18:26:29 58° SSE 18:43:49 10° E daylight
21 Jun - 20:24:10 10° WSW 20:44:46 83° S 20:59:15 10° E daylight
21 Jun - 22:44:02 10° W 23:02:23 82° S 23:13:03 10° ESE daylight
22 Jun - 01:04:12 10° W 01:17:16 47° SW 01:24:50 10° SE daylight
22 Jun - 14:59:02 10° SSE 15:08:53 17° SE 15:19:45 10° E daylight
22 Jun - 17:07:07 10° SSW 17:24:38 48° SE 17:42:28 10° E daylight
22 Jun - 19:22:10 10° WSW 19:42:39 77° SSE 19:59:01 10° E daylight
22 Jun - 21:41:08 10° W 22:01:01 86° S 22:13:34 10° E daylight
23 Jun - 00:01:21 10° W 00:17:17 62° SSW 00:26:19 10° SE daylight
23 Jun - 02:22:28 10° W 02:30:05 20° SW 02:35:28 10° S daylight
23 Jun - 16:07:46 10° SSW 16:23:09 37° SE 16:40:18 10° E daylight
23 Jun - 18:20:50 10° SW 18:40:26 69° SSE 18:58:19 10° E daylight
23 Jun - 20:38:29 10° W 20:59:10 86° S 21:13:43 10° E daylight
23 Jun - 22:58:26 10° W 23:16:40 74° SSW 23:27:21 10° ESE daylight
24 Jun - 01:18:57 10° W 01:30:51 34° SW 01:38:15 10° SSE daylight
24 Jun - 15:09:28 10° S 15:22:08 27° SE 15:36:59 10° E daylight
24 Jun - 17:20:15 10° SW 17:38:20 59° SSE 17:57:07 10° ENE daylight
24 Jun - 19:36:19 10° WSW 19:56:57 83° S 20:13:27 10° E daylight
24 Jun - 21:55:33 10° W 22:15:25 82° SSW 22:27:58 10° ESE daylight
25 Jun - 00:15:49 10° WNW 00:31:06 49° SW 00:40:08 10° SE daylight
25 Jun - 02:39:53 10° WSW 02:43:16 12° SW 02:46:12 10° SW daylight
25 Jun - 14:12:52 10° SSE 14:21:34 17° SE 14:31:40 10° E daylight
25 Jun - 16:20:26 10° SSW 16:36:36 48° SE 16:55:16 10° E daylight
25 Jun - 18:34:45 10° WSW 18:54:32 78° SSE 19:12:45 10° E daylight
25 Jun - 20:52:55 10° W 21:13:36 86° S 21:28:09 10° E daylight
25 Jun - 23:12:49 10° WNW 23:30:43 63° SSW 23:41:26 10° SE daylight
26 Jun - 01:34:16 10° W 01:44:09 23° SW 01:50:59 10° S daylight
26 Jun - 15:21:26 10° SSW 15:35:22 37° SE 15:52:37 10° E daylight
26 Jun - 17:33:52 10° SW 17:52:13 70° SSE 18:11:34 10° E daylight
26 Jun - 19:50:39 10° W 20:11:20 87° S 20:27:54 10° E daylight
26 Jun - 22:09:58 10° W 22:29:39 75° SSW 22:42:14 10° ESE daylight
27 Jun - 00:30:31 10° W 00:44:36 37° SW 00:53:31 10° SSE daylight
27 Jun - 14:23:28 10° S 14:34:41 26° SE 14:48:53 10° E daylight
27 Jun - 16:33:42 10° SW 16:50:13 60° SSE 17:09:51 10° ENE daylight
27 Jun - 18:48:57 10° WSW 19:08:50 84° S 19:27:11 10° E daylight
27 Jun - 21:07:20 10° W 21:27:58 82° SSW 21:42:31 10° ESE daylight
27 Jun - 23:27:17 10° WNW 23:44:28 51° SW 23:55:12 10° SE daylight
28 Jun - 01:51:04 10° W 01:57:16 14° SW 02:02:15 10° SSW daylight
28 Jun - 13:27:19 10° SSE 13:34:31 15° SE 13:43:06 10° E visible
28 Jun - 15:34:16 10° SSW 15:48:43 48° SE 16:07:31 10° ENE daylight
28 Jun - 17:47:51 10° WSW 18:06:19 79° SSE 18:25:58 10° E daylight
28 Jun - 20:05:05 10° W 20:25:46 86° S 20:42:19 10° E daylight
28 Jun - 22:24:21 10° WNW 22:43:40 64° SSW 22:56:16 10° SE daylight
29 Jun - 00:45:47 10° W 00:57:51 26° SW 01:06:13 10° S daylight
29 Jun - 14:35:36 10° SSW 14:47:50 36° SE 15:04:29 10° E daylight
29 Jun - 16:47:25 10° WSW 17:04:04 71° SSE 17:24:17 10° E daylight
29 Jun - 19:03:19 10° W 19:23:13 87° S 19:41:37 10° E daylight
29 Jun - 21:21:44 10° W 21:42:11 75° SSW 21:56:45 10° ESE daylight
